Location: Fours
(44.3167°N, 6.7000°E)
Time: 05:04:02
(UTC+00:00)

Cosmos 1782 - Pass Details

Date: 30 November 2020
Orbit: 537 x 551 km, 82.5° (Epoch: 24 January)

Event Time Altitude Azimuth Distance (km) Brightness Sun altitude
Rises 16:25:05 0° 149° (SSE) 2,683 6.3 -5.5°
Reaches altitude 10° 16:27:44 10° 130° (SE) 1,800 5.2 -5.9°
Maximum altitude 16:30:26 18° 87° (E) 1,375 4.3 -6.4°
Drops below altitude 10° 16:33:09 10° 44° (NE) 1,816 4.9 -6.8°
Enters shadow 16:34:49 - 30° (NNE) 2,344 5.5 -7.1°
